Temp
61 61 60 60 60 60 60 60 60 60 61 61 61 61 61 61 61 58 61 73 70 73 75 75 74 73 70 66 68 66 57 53 57 60 62 67 63 71 72 69 72 73 77 78 79
60 60 60 60 60 60 59 59 60 60 60 61 61 61 61 61 57 59 71 73 73 74 74 70 67 71 65 63 65 62 54 60 66 67 66 66 68 67 69 69 68 70 73 76 77
59 60 60 60 60 59 59 59 59 60 60 60 61 61 61 60 61 69 77 74 74 74 73 72 70 69 62 62 64 59 59 65 68 71 72 70 67 70 68 62 66 64 66 69 68
59 59 60 59 59 59 59 59 59 59 60 60 60 61 61 59 58 72 76 74 74 74 72 69 64 59 57 58 63 60 66 68 68 72 68 67 70 64 64 62 68 67 67 66 63
59 59 59 59 59 59 58 58 58 59 59 59 60 61 58 58 63 76 77 75 73 75 72 68 61 59 55 60 65 61 66 69 72 67 67 69 64 62 61 67 68 67 65 62 61
58 58 58 58 58 58 58 58 57 58 58 59 60 61 58 57 76 79 75 73 73 71 71 69 67 68 61 61 62 67 66 68 68 66 67 62 63 64 63 67 64 63 61 61 61
58 58 58 58 58 58 58 57 57 58 59 61 61 63 58 64 77 75 77 74 75 75 71 71 73 68 65 65 69 69 62 65 66 66 64 68 60 58 64 64 60 60 60 60 60
58 57 57 58 58 58 58 58 58 59 60 61 62 58 56 71 70 73 75 76 79 77 77 75 75 68 68 70 68 61 59 52 62 66 67 64 55 60 63 61 58 59 59 58 58
58 57 57 57 57 58 57 57 58 60 61 62 55 54 58 74 73 78 77 77 78 78 76 87 73 68 69 61 53 56 50 52 59 66 64 61 54 60 62 61 58 57 57 57 55
58 58 57 57 57 57 56 57 58 58 60 65 66 56 65 71 78 80 75 79 77 73 72 70 63 59 55 55 48 52 50 49 57 65 63 55 54 60 62 61 58 56 56 56 55
58 58 56 56 57 56 54 54 58 57 57 64 67 68 75 81 82 78 80 77 76 70 59 61 57 53 57 58 59 58 56 55 61 64 58 57 55 58 60 58 55 53 54 54 54
58 57 56 56 57 56 50 57 64 64 58 66 68 69 77 78 71 76 80 71 67 60 59 58 53 62 62 61 59 57 54 53 59 63 60 53 52 56 59 57 56 54 52 52 52
56 57 56 56 56 52 53 63 69 68 56 66 68 67 70 74 69 71 77 70 64 59 58 55 62 68 64 60 59 55 53 54 57 57 57 55 48 52 57 56 56 56 55 54 52
56 56 56 56 54 55 59 67 67 65 50 61 66 71 71 74 70 79 79 73 63 62 60 58 65 66 61 61 61 53 63 63 57 52 45 55 40 48 54 53 54 53 52 51 51
56 56 56 55 51 58 70 63 62 66 42 69 70 81 75 71 71 73 78 71 64 65 62 60 62 61 59 62 65 60 68 62 59 53 48 48 43 45 53 50 52 51 50 51 51
56 56 55 51 48 59 63 63 65 52 44 65 71 71 68 71 71 75 73 74 72 64 61 63 67 66 64 69 67 70 61 54 49 46 40 47 50 44 49 55 56 50 52 52 51
56 56 54 60 62 61 63 64 50 44 66 63 66 70 66 65 67 68 65 61 58 51 51 64 64 66 69 61 63 58 49 41 39 38 38 50 45 48 53 58 58 50 51 52 52
55 54 52 58 54 60 63 56 41 57 60 69 68 69 62 64 63 64 61 55 60 56 50 48 50 60 67 59 57 56 52 43 37 36 42 48 43 46 50 55 57 55 53 53 49
53 49 52 58 56 58 58 44 47 56 66 64 65 58 58 63 60 61 58 57 59 57 49 46 50 63 66 65 62 56 49 55 48 42 40 39 42 48 50 51 52 50 52 49 49
55 57 62 63 62 61 52 47 54 66 66 65 54 59 52 55 55 54 55 61 61 63 57 53 46 60 63 64 64 55 59 46 43 35 34 37 37 38 41 44 48 49 48 49 53
58 61 67 63 65 57 48 50 60 68 66 60 56 54 54 53 53 52 54 59 62 62 59 56 50 51 60 55 50 53 47 48 47 42 34 32 35 46 43 46 47 47 49 50 51
57 56 67 66 56 47 50 57 60 63 65 61 60 57 53 53 51 52 52 53 61 59 53 52 46 42 49 61 63 55 48 45 40 38 44 38 35 46 45 45 47 48 50 49 50
56 55 66 65 48 48 53 60 62 60 59 58 56 57 56 51 47 52 53 61 60 56 50 51 43 37 44 49 55 51 52 50 45 44 40 37 38 49 49 47 49 48 50 52 52
57 53 56 55 51 48 48 51 53 62 59 58 55 56 52 51 52 49 51 58 60 58 60 53 42 41 36 40 47 46 50 51 46 39 41 42 43 44 47 48 49 52 52 52 52
54 49 50 44 50 48 49 50 50 50 55 54 51 51 47 42 44 46 50 52 57 58 55 48 41 44 45 50 49 44 42 44 46 47 42 46 44 47 49 50 51 52 51 51 49
52 51 50 45 48 49 45 44 47 50 50 48 46 50 48 43 44 41 46 43 46 50 51 49 43 44 43 52 52 40 40 42 44 42 43 46 44 50 52 52 49 50 50 49 50
51 52 51 45 46 43 43 46 48 49 52 53 50 46 46 49 51 51 50 48 45 41 41 40 36 35 34 43 45 36 37 39 39 39 37 38 42 48 46 48 48 49 50 51 51
MSLP
1017.05 1016.82 1016.71 1016.51 1016.35 1016.17 1015.86 1015.70 1015.49 1015.42 1015.18 1014.85 1014.54 1014.30 1014.02 1013.55 1012.99 1012.77 1011.76 1009.23 1009.04 1008.64 1009.13 1009.28 1009.11 1009.10 1009.20 1009.37 1009.55 1010.41 1012.15 1013.16 1012.70 1012.56 1011.83 1012.20 1012.68 1012.93 1013.26 1013.31 1013.26 1012.72 1011.94 1012.35 1013.71
1017.00 1016.78 1016.55 1016.37 1016.24 1016.07 1015.79 1015.63 1015.46 1015.36 1015.03 1014.71 1014.33 1014.11 1013.91 1013.61 1013.12 1011.53 1008.08 1008.06 1008.12 1008.55 1009.21 1009.24 1009.22 1009.08 1009.34 1009.42 1009.62 1010.29 1011.70 1011.87 1011.29 1011.09 1011.17 1012.13 1012.78 1013.32 1013.65 1013.86 1014.06 1013.78 1013.84 1013.88 1014.73
1016.98 1016.66 1016.45 1016.28 1016.07 1015.93 1015.70 1015.53 1015.49 1015.29 1014.92 1014.56 1014.20 1013.96 1013.64 1013.40 1012.47 1008.86 1007.15 1007.52 1007.90 1008.52 1008.89 1009.01 1009.03 1009.10 1009.22 1009.29 1009.53 1010.12 1010.76 1010.88 1010.49 1010.70 1011.22 1012.55 1013.39 1013.72 1014.11 1014.48 1014.42 1014.96 1015.40 1015.50 1015.77
1016.87 1016.65 1016.36 1016.13 1015.93 1015.72 1015.52 1015.41 1015.36 1015.13 1014.83 1014.43 1014.10 1013.91 1013.62 1013.28 1011.11 1007.59 1007.08 1006.88 1007.67 1008.46 1008.93 1009.00 1009.11 1009.30 1009.34 1009.31 1009.21 1009.68 1010.24 1010.41 1010.57 1010.90 1011.64 1012.42 1013.30 1014.01 1014.57 1015.50 1015.27 1015.83 1016.32 1016.60 1017.14
1016.89 1016.54 1016.16 1016.00 1015.80 1015.51 1015.35 1015.25 1015.22 1015.01 1014.71 1014.37 1014.01 1013.84 1013.58 1012.78 1010.02 1007.51 1007.45 1007.49 1008.12 1008.60 1008.83 1009.14 1009.19 1009.29 1009.20 1009.13 1009.21 1009.61 1010.28 1010.70 1010.65 1011.36 1012.01 1012.86 1013.69 1014.52 1015.45 1015.98 1016.11 1016.58 1017.14 1017.80 1018.29
1016.63 1016.30 1016.08 1015.90 1015.51 1015.34 1015.22 1015.11 1015.02 1014.80 1014.49 1014.28 1014.10 1014.02 1013.67 1011.70 1007.85 1007.51 1007.81 1008.16 1008.24 1008.49 1008.72 1008.93 1008.81 1008.79 1008.88 1008.86 1009.03 1009.36 1010.34 1010.95 1011.65 1012.21 1012.60 1013.38 1014.19 1014.12 1016.03 1016.29 1016.92 1017.36 1018.08 1018.71 1019.29
1016.27 1016.20 1016.03 1015.52 1015.27 1015.16 1015.08 1014.90 1014.74 1014.53 1014.27 1014.12 1014.04 1013.87 1013.02 1009.37 1007.52 1007.60 1007.72 1007.85 1007.95 1008.12 1008.43 1008.50 1008.44 1008.77 1008.74 1008.89 1009.05 1009.81 1011.35 1012.08 1012.56 1012.80 1013.09 1013.92 1014.30 1014.98 1015.68 1016.22 1017.32 1018.01 1018.69 1019.21 1019.71
1016.36 1016.18 1015.71 1015.23 1015.13 1015.02 1014.88 1014.66 1014.46 1014.27 1014.09 1013.94 1013.92 1013.69 1011.68 1008.12 1007.78 1007.53 1007.62 1007.58 1007.47 1007.87 1007.99 1007.84 1008.21 1008.60 1008.74 1009.06 1009.90 1010.91 1011.91 1012.75 1012.87 1012.78 1013.01 1013.86 1014.24 1015.35 1015.94 1016.18 1017.48 1018.37 1018.97 1019.63 1020.09
1016.12 1015.87 1015.39 1015.12 1015.03 1014.87 1014.67 1014.36 1014.16 1014.04 1013.96 1013.89 1013.85 1013.33 1010.32 1007.74 1007.69 1006.57 1006.89 1007.14 1007.10 1007.49 1007.76 1007.82 1008.18 1008.71 1009.02 1009.67 1010.77 1011.50 1012.30 1012.69 1013.08 1012.76 1012.98 1013.96 1014.36 1014.93 1015.91 1016.38 1017.38 1018.31 1019.14 1019.84 1020.52
1015.88 1015.44 1015.21 1015.07 1014.97 1014.73 1014.40 1014.11 1013.93 1013.83 1013.79 1013.66 1013.17 1012.85 1009.30 1007.41 1006.56 1006.25 1006.33 1006.74 1006.92 1007.29 1007.62 1007.91 1008.65 1009.21 1010.01 1010.29 1011.14 1011.41 1012.25 1012.41 1012.12 1012.16 1013.04 1013.93 1014.17 1014.94 1015.70 1016.40 1017.36 1018.38 1019.17 1019.86 1020.62
1015.66 1015.29 1015.15 1014.96 1014.84 1014.58 1014.18 1013.94 1014.16 1013.71 1013.03 1011.56 1010.59 1009.80 1008.02 1006.86 1006.02 1005.87 1006.08 1006.55 1006.77 1007.37 1007.98 1008.39 1009.27 1009.56 1009.83 1010.16 1010.45 1010.95 1011.47 1011.97 1012.17 1011.81 1013.02 1013.66 1014.27 1014.58 1015.51 1016.49 1017.56 1018.65 1019.30 1019.94 1020.56
1015.46 1015.17 1015.00 1014.79 1014.69 1014.51 1014.57 1013.75 1012.47 1012.39 1011.20 1009.59 1008.78 1008.62 1007.62 1007.31 1007.09 1005.94 1005.82 1006.59 1007.05 1007.80 1008.38 1009.11 1009.24 1009.08 1009.27 1009.66 1010.06 1010.54 1011.15 1011.72 1011.50 1011.67 1012.71 1013.92 1014.64 1015.08 1015.39 1015.91 1016.96 1018.24 1019.34 1020.07 1020.91
1015.32 1015.03 1014.95 1014.72 1014.53 1014.59 1014.21 1012.72 1011.34 1011.51 1011.28 1008.46 1007.88 1007.51 1007.01 1007.10 1006.83 1005.85 1005.92 1006.30 1006.99 1007.91 1008.53 1009.06 1008.58 1008.42 1009.10 1009.29 1009.72 1009.78 1010.30 1010.61 1011.24 1011.98 1013.06 1013.86 1015.17 1015.41 1015.61 1016.17 1017.14 1018.06 1018.79 1019.80 1020.60
1015.06 1014.85 1014.66 1014.58 1014.87 1014.27 1013.14 1011.54 1011.40 1011.27 1010.81 1008.24 1007.07 1006.09 1006.27 1006.23 1005.96 1005.04 1005.24 1006.23 1007.04 1007.54 1008.35 1008.67 1008.00 1008.19 1008.44 1008.75 1008.96 1009.05 1008.74 1009.40 1010.63 1011.97 1013.06 1013.22 1014.68 1014.94 1015.10 1016.21 1017.18 1017.93 1018.77 1019.81 1020.65
1014.77 1014.65 1014.51 1014.64 1014.66 1013.76 1011.67 1011.37 1010.96 1010.83 1009.96 1007.30 1006.17 1005.20 1005.60 1005.87 1005.38 1004.97 1004.87 1005.73 1006.50 1007.09 1008.02 1007.72 1007.58 1007.65 1007.86 1007.77 1008.00 1008.12 1007.91 1009.01 1010.03 1011.39 1012.34 1013.35 1014.29 1013.41 1014.72 1016.20 1016.27 1017.29 1018.54 1019.58 1020.47
1014.51 1014.42 1014.47 1014.74 1014.63 1012.36 1011.44 1011.23 1011.04 1011.29 1009.33 1007.25 1006.09 1005.65 1005.98 1005.91 1005.52 1005.24 1005.16 1005.39 1006.04 1006.93 1007.53 1007.32 1006.95 1007.05 1006.66 1006.39 1007.03 1007.28 1007.76 1008.87 1010.31 1011.65 1012.48 1012.21 1013.05 1013.08 1013.41 1012.84 1014.39 1016.83 1018.16 1019.35 1020.37
1014.26 1014.35 1014.52 1013.85 1013.01 1012.00 1011.30 1011.29 1011.95 1011.08 1009.18 1008.23 1007.28 1006.65 1006.54 1006.67 1006.52 1006.37 1006.07 1006.43 1006.87 1007.48 1007.73 1007.11 1006.92 1006.45 1006.38 1006.55 1006.38 1007.27 1008.66 1009.90 1011.18 1012.10 1012.02 1011.69 1013.05 1011.88 1012.02 1012.21 1013.27 1015.52 1017.53 1018.97 1019.96
1014.09 1014.16 1013.98 1013.17 1012.56 1012.31 1011.97 1012.34 1012.24 1011.05 1009.85 1008.61 1007.92 1007.55 1007.75 1007.78 1007.47 1007.41 1007.26 1007.65 1007.61 1007.86 1008.38 1008.30 1007.49 1006.81 1006.95 1006.97 1007.04 1007.37 1008.53 1009.84 1010.51 1011.60 1011.88 1011.90 1012.40 1011.98 1012.50 1012.50 1013.05 1015.10 1017.04 1018.91 1020.20
1014.01 1014.15 1013.91 1012.41 1012.22 1012.72 1013.03 1013.33 1012.67 1011.34 1010.23 1009.53 1008.81 1008.84 1009.12 1009.18 1009.18 1008.72 1008.55 1008.46 1008.32 1008.32 1008.66 1008.78 1008.10 1007.41 1007.15 1006.93 1007.07 1007.19 1007.98 1008.30 1009.49 1010.67 1011.82 1012.48 1012.68 1012.84 1012.70 1013.43 1014.44 1015.72 1017.20 1018.86 1020.22
1013.85 1013.66 1012.96 1011.90 1011.97 1012.47 1013.37 1013.78 1012.81 1011.93 1010.54 1010.02 1010.38 1010.36 1010.55 1010.61 1010.39 1010.22 1009.68 1009.17 1009.06 1008.83 1008.87 1009.21 1009.07 1008.01 1007.50 1007.19 1007.31 1007.72 1008.40 1008.93 1010.03 1011.62 1012.52 1013.06 1013.69 1014.28 1015.13 1015.54 1016.06 1016.99 1017.99 1019.16 1019.99
1013.75 1013.66 1012.60 1012.01 1012.11 1013.32 1014.45 1014.10 1013.28 1012.44 1011.63 1011.55 1011.94 1011.92 1012.29 1012.27 1011.91 1011.52 1011.21 1010.29 1010.40 1009.71 1009.59 1009.79 1009.64 1008.85 1008.29 1008.36 1008.77 1008.97 1009.93 1010.54 1011.11 1012.26 1013.32 1014.21 1014.73 1014.98 1015.60 1016.53 1016.89 1017.39 1018.70 1019.46 1020.13
1014.03 1014.41 1013.08 1012.75 1013.65 1015.04 1015.43 1014.82 1014.00 1013.70 1012.70 1012.89 1013.10 1013.36 1013.49 1013.40 1013.03 1012.55 1012.31 1012.07 1011.30 1010.79 1010.70 1010.79 1010.83 1010.36 1009.78 1008.94 1009.03 1009.72 1011.32 1012.46 1012.85 1013.60 1013.75 1014.79 1015.39 1015.40 1015.71 1017.05 1017.76 1017.92 1018.73 1019.69 1020.42
1014.81 1014.79 1013.61 1013.24 1015.46 1016.28 1016.22 1015.78 1015.25 1014.83 1014.74 1014.50 1014.56 1014.58 1014.48 1014.47 1014.34 1013.94 1013.30 1012.69 1012.27 1011.92 1012.04 1011.73 1011.82 1011.75 1010.93 1010.82 1010.48 1010.82 1011.53 1013.26 1014.15 1014.46 1014.72 1015.45 1015.84 1016.16 1015.80 1017.34 1018.30 1018.36 1018.70 1019.47 1020.24
1015.25 1016.02 1016.22 1016.48 1017.32 1017.40 1017.46 1017.45 1016.79 1015.99 1015.90 1015.83 1015.73 1015.38 1015.38 1015.41 1015.34 1014.96 1014.53 1013.55 1013.21 1012.91 1012.62 1012.34 1013.09 1013.12 1012.97 1012.57 1012.40 1012.45 1012.95 1013.49 1014.44 1014.99 1014.56 1014.95 1014.77 1015.96 1016.18 1015.26 1015.51 1017.56 1017.88 1019.40 1020.18
1016.25 1018.46 1018.61 1019.63 1019.13 1019.00 1018.52 1019.00 1018.32 1017.55 1017.22 1017.09 1016.81 1016.98 1016.87 1016.81 1016.61 1016.23 1015.63 1014.98 1013.99 1013.68 1013.36 1013.93 1014.03 1013.83 1013.61 1013.40 1013.63 1014.55 1014.99 1014.63 1014.58 1014.35 1014.32 1013.97 1014.23 1013.67 1014.14 1015.10 1016.08 1017.26 1018.34 1019.38 1020.59
1017.83 1018.86 1019.71 1020.42 1020.22 1019.94 1020.12 1020.29 1019.76 1019.08 1018.65 1018.32 1018.31 1017.87 1017.13 1017.33 1017.44 1017.36 1016.78 1016.28 1015.65 1014.73 1014.74 1014.57 1014.58 1014.62 1014.28 1014.07 1014.52 1015.89 1016.22 1016.08 1015.97 1016.03 1015.39 1014.98 1014.22 1013.26 1014.49 1015.99 1016.99 1017.66 1018.57 1019.66 1020.60
1018.80 1019.01 1019.51 1021.59 1021.36 1021.19 1021.56 1021.03 1020.71 1020.14 1019.38 1019.01 1018.81 1018.50 1017.75 1017.34 1017.34 1016.78 1016.47 1016.40 1016.57 1016.22 1015.96 1015.89 1015.83 1015.75 1015.48 1015.10 1015.52 1016.85 1017.89 1018.14 1017.83 1018.08 1017.71 1016.35 1015.02 1014.74 1015.71 1016.64 1017.20 1018.03 1018.87 1019.81 1020.70
Wind_Speed
11 11 11 11 11 11 10 11 11 11 11 11 11 11 12 13 13 2 8 14 9 11 5 4 0 2 3 2 3 4 6 3 7 9 6 6 6 2 2 0 4 7 2 7 17
11 11 11 11 11 11 10 10 11 11 11 11 11 11 10 10 3 8 13 11 16 9 5 2 1 3 2 1 1 6 5 8 7 6 10 7 6 4 2 2 3 10 14 16 15
12 12 11 11 11 10 9 10 10 10 10 10 11 11 12 8 5 9 1 16 15 7 3 2 2 1 1 1 3 3 6 5 2 8 14 12 6 4 4 4 3 9 11 14 17
11 12 12 11 11 10 9 9 10 10 10 10 10 11 11 3 3 2 8 4 13 8 2 1 2 3 2 3 3 5 4 6 6 7 8 13 5 5 4 4 12 12 11 14 16
11 12 11 12 11 11 10 9 10 9 9 9 10 10 5 1 11 6 7 11 8 7 6 5 4 3 3 3 4 4 6 5 10 8 7 7 4 5 10 11 13 14 15 14 13
10 11 11 11 11 11 10 9 9 9 8 8 7 7 2 4 5 1 7 7 5 6 6 6 6 7 2 2 2 6 7 14 8 6 7 11 8 3 4 12 13 14 13 12 12
13 11 11 11 11 11 10 9 8 8 9 7 5 3 1 17 2 4 6 5 5 5 5 5 5 2 1 4 6 14 14 7 5 6 4 12 3 3 11 12 13 13 12 12 10
12 12 11 11 11 12 11 9 8 8 8 5 4 1 9 5 1 6 4 4 4 5 4 3 5 2 3 3 5 6 6 6 5 5 3 3 7 6 9 13 11 12 11 10 9
10 12 12 11 11 11 11 10 10 7 5 2 1 1 12 6 2 7 7 6 4 4 4 2 3 4 3 6 5 4 7 4 5 7 2 3 5 9 8 11 11 10 11 11 10
11 12 11 10 10 11 11 8 6 6 3 4 4 3 7 1 4 3 5 4 4 2 1 4 4 2 4 4 5 6 7 1 14 16 10 5 7 13 14 11 11 9 9 10 9
12 12 10 10 9 8 7 3 3 1 2 9 7 6 8 5 3 4 4 6 3 5 3 3 4 5 7 7 5 4 5 7 16 4 7 14 6 15 13 8 11 9 9 9 9
10 11 10 8 7 5 3 1 2 1 11 14 17 8 8 4 6 7 4 5 5 5 2 5 5 9 3 2 4 4 6 8 6 6 9 6 5 6 11 5 11 13 10 11 10
9 8 9 7 4 2 2 6 2 5 3 8 6 6 6 9 8 10 8 4 3 4 4 7 9 2 4 4 4 5 5 6 7 4 5 9 3 7 6 4 7 8 9 11 14
8 7 6 4 2 2 5 2 5 6 5 9 3 6 4 5 6 8 9 7 3 9 6 6 6 7 5 7 7 7 8 9 8 7 7 6 6 8 12 8 11 11 10 11 10
7 5 3 1 2 1 5 6 5 4 4 6 1 2 5 8 2 2 5 4 8 7 7 11 5 5 5 9 7 11 9 10 9 9 6 6 1 7 15 10 18 13 13 12 10
6 4 3 2 0 7 9 7 3 6 3 8 2 5 2 5 5 6 2 3 3 5 2 10 2 5 9 9 8 8 5 7 6 5 4 11 14 6 16 29 20 12 15 14 12
5 4 5 0 4 6 7 5 6 3 7 7 6 9 5 6 6 6 3 3 6 3 6 15 12 5 4 5 2 4 5 4 4 1 7 8 5 7 9 8 21 20 19 16 13
3 4 6 5 3 7 5 7 5 4 4 5 5 6 5 8 3 7 5 4 3 3 2 4 9 0 6 1 6 6 10 7 9 6 7 5 8 6 7 8 18 20 20 16 12
3 2 3 4 5 3 7 6 4 3 5 6 8 5 5 6 3 7 5 2 1 2 3 2 5 3 1 4 2 7 5 6 3 2 4 3 3 3 9 12 16 19 19 14 13
1 2 3 0 5 6 7 3 2 6 9 3 3 5 7 8 8 8 3 2 3 2 1 6 3 3 5 5 4 1 4 3 4 2 5 3 2 4 1 8 14 16 15 14 15
3 5 4 2 3 7 4 4 5 15 14 10 8 7 6 5 4 5 6 6 11 6 2 3 3 5 1 4 2 7 6 6 3 5 1 2 2 6 8 8 14 14 14 14 12
3 5 4 4 6 1 4 7 7 12 12 9 5 5 4 5 4 4 4 3 14 5 5 3 3 3 3 4 11 6 4 4 3 4 2 5 5 6 9 8 11 15 14 10 10
4 0 4 5 3 4 3 6 6 12 9 8 7 5 3 5 5 6 6 6 9 8 4 5 3 4 8 6 6 2 5 5 5 4 3 2 4 3 15 12 8 14 14 15 15
4 4 6 7 2 1 2 6 7 7 4 8 4 5 4 4 2 4 7 5 11 6 8 3 2 4 4 2 4 5 5 6 7 5 7 8 7 8 14 22 24 19 17 15 14
5 2 2 4 8 5 6 5 8 8 7 11 8 8 5 7 9 6 3 7 8 5 5 4 2 1 1 5 5 7 8 12 9 5 8 11 15 20 22 17 17 14 15 15 13
5 4 5 3 4 8 8 6 7 8 7 6 5 7 3 5 6 7 6 3 7 6 6 4 5 3 6 2 6 5 13 12 9 9 7 7 10 4 13 12 16 16 16 16 14
3 3 7 5 6 5 5 3 6 6 3 1 4 5 7 6 6 13 12 5 3 2 2 2 1 2 5 2 5 3 6 8 2 9 6 5 2 12 14 16 16 15 15 15 13
Wind_Direction
321 318 315 315 313 315 321 321 325 320 319 319 317 319 316 319 311 190 246 218 190 236 23 291 40 286 99 208 148 121 79 176 198 182 182 131 155 76 347 250 24 348 82 115 117
319 316 315 311 311 312 319 320 321 315 316 316 318 319 317 319 294 249 243 210 207 129 146 134 46 337 77 233 122 102 114 208 191 194 162 143 146 164 180 143 95 67 59 88 109
318 316 315 312 311 311 316 319 312 311 314 317 319 322 319 319 305 250 166 209 203 171 228 100 156 172 125 206 169 142 167 204 22 125 137 154 160 209 179 66 8 113 93 82 89
319 310 310 313 311 312 315 313 310 311 315 318 321 320 317 309 281 293 358 202 175 150 193 156 110 114 129 186 192 94 132 175 183 128 122 143 125 90 56 86 100 94 93 89 80
317 313 316 311 312 315 314 312 307 307 313 315 318 325 340 331 251 287 51 110 119 139 165 178 143 147 172 204 162 117 190 166 137 112 115 100 74 132 93 95 92 93 80 77 80
320 320 318 310 316 315 309 304 300 303 310 307 304 310 258 280 249 320 108 126 154 147 176 158 187 203 192 194 130 165 149 138 138 149 123 128 151 95 140 116 95 90 85 79 77
334 317 310 319 317 312 303 298 294 301 306 299 294 283 268 238 166 87 159 188 167 191 169 202 180 34 47 359 8 113 105 62 129 141 134 148 40 124 146 121 108 101 99 95 88
329 320 318 325 317 309 300 297 295 300 302 287 288 279 250 249 289 298 171 272 221 205 253 183 148 144 203 143 67 90 50 113 241 192 197 264 207 150 154 127 124 123 116 104 93
316 321 321 323 313 303 295 293 289 290 269 245 236 167 267 297 220 239 159 222 157 178 257 271 132 195 86 110 48 319 156 163 173 224 169 251 223 178 172 148 150 142 133 127 118
317 323 322 316 306 299 292 278 293 304 220 205 255 331 281 341 288 201 203 144 229 100 37 159 67 116 52 83 190 192 153 203 179 210 207 176 245 167 181 166 159 147 138 132 132
322 322 315 309 303 307 327 72 351 325 227 208 201 233 291 276 313 304 139 123 155 70 183 358 76 235 237 192 169 159 130 176 210 228 138 215 212 189 174 160 154 151 152 144 139
318 317 309 308 307 332 314 123 238 187 298 226 243 250 271 50 315 302 125 153 129 205 116 12 240 236 241 220 214 185 183 208 262 217 160 160 262 198 187 179 166 156 161 149 139
306 309 298 308 356 356 248 237 254 4 277 299 195 210 213 150 215 259 149 173 144 170 181 189 240 197 175 260 238 235 190 219 183 91 50 115 346 198 213 144 157 176 162 153 154
305 300 299 324 352 263 262 192 258 191 40 282 257 283 140 160 263 209 190 146 163 211 179 230 257 235 256 239 171 264 202 229 142 129 203 182 237 216 198 189 183 181 164 155 154
303 295 278 182 285 220 284 343 315 59 34 325 310 155 169 166 267 321 182 92 196 198 116 242 226 227 227 234 161 240 247 210 192 200 125 170 91 264 151 200 211 184 161 161 157
294 277 167 108 271 247 304 311 57 36 341 331 53 316 86 338 314 10 146 91 202 197 186 244 268 169 219 253 170 237 310 44 49 117 222 201 196 220 182 204 193 165 165 159 153
289 235 180 357 230 328 309 40 38 78 325 345 334 339 76 350 34 354 216 210 195 145 242 252 257 273 195 286 332 126 77 304 318 53 226 195 185 229 220 225 184 166 160 160 153
294 174 240 241 318 353 29 52 67 273 304 312 327 357 62 11 359 358 15 11 10 125 96 181 288 221 2 279 259 221 166 169 236 210 230 130 214 234 284 270 155 158 148 149 141
127 212 268 265 206 130 67 55 219 272 312 310 334 38 352 1 338 0 350 300 278 3 164 155 250 297 161 283 206 294 189 214 220 84 118 217 297 302 18 116 139 145 144 138 142
111 21 319 307 164 62 71 239 263 333 314 352 23 18 12 347 18 17 315 341 297 306 219 215 285 268 268 47 26 70 306 26 15 268 239 252 274 268 310 141 140 143 138 141 148
54 53 291 201 64 46 85 274 11 4 29 32 6 8 6 355 301 332 325 317 3 306 290 166 185 275 307 89 178 1 12 3 92 117 141 309 271 299 175 166 150 136 135 145 149
81 49 322 16 41 21 40 339 29 22 7 22 52 57 342 349 310 30 11 347 332 334 332 340 199 269 326 187 125 127 93 358 90 329 78 140 280 341 101 115 136 138 137 136 133
85 173 321 91 55 354 8 10 64 21 19 2 18 11 347 3 359 32 335 320 356 22 11 328 336 2 338 355 2 351 130 114 15 327 135 127 270 179 133 128 147 146 150 149 146
79 40 358 35 19 45 80 10 1 344 62 359 4 350 340 6 10 339 338 322 329 346 358 125 87 154 193 266 289 1 29 177 169 185 181 220 193 201 181 163 166 177 157 153 149
33 10 214 352 358 22 55 21 6 357 4 25 11 4 337 16 342 351 310 315 309 343 10 65 310 1 254 278 91 69 15 344 212 228 184 233 206 199 194 180 164 146 141 142 135
92 100 23 19 350 31 12 345 10 326 15 333 360 323 88 168 195 262 282 264 251 324 352 322 253 295 294 254 53 50 17 8 33 350 314 288 233 259 155 136 140 139 139 139 143
341 37 98 325 357 60 345 357 11 355 299 61 287 310 330 296 272 255 246 268 289 304 267 14 290 116 266 343 165 74 17 26 8 13 299 266 250 122 129 144 143 138 135 139 143